Regional Weather Roundup
Issued by NWS

Home | Current Version | Previous Version | Text Only | Print | Product List | Glossary Off
Versions: 1 2 3 4 5 6 7 8 9 10 11 12 13 14 15 16 17 18 19 20 21 22 23 24 25 26 27 28 29 30 31 32 33 34 35 36 37 38 39 40 41 42 43 44 45 46 47 48

000
ASUS45 KBOI 030110
RWRID

IDAHO REGIONAL WEATHER ROUNDUP
NATIONAL WEATHER SERVICE BOISE ID
700 PM MDT WED SEP 02 2015

NOTE: "FAIR" INDICATES FEW OR NO CLOUDS BELOW 12000 FEET
WITH NO SIGNIFICANT WEATHER AND/OR OBSTRUCTIONS TO VISIBILITY

IDZ012-014-030200-
SOUTHWEST IDAHO


CITY           SKY/WX    TMP DP  RH WIND       PRES   REMARKS
BOISE          PTSUNNY   79  40  24 NW16      29.72F
CALDWELL       PTSUNNY   81  41  24 N9        29.74S
MOUNTAIN HOME  SUNNY     87  35  15 N3        29.70F
$$

IDZ016-017-030200-
SOUTHCENTRAL IDAHO


CITY           SKY/WX    TMP DP  RH WIND       PRES   REMARKS
BURLEY         SUNNY     82  39  21 N5        29.79F
JEROME         SUNNY     81  40  23 CALM      29.79F
TWIN FALLS     SUNNY     83  41  22 E6        29.80F
$$

IDZ019>023-030200-
SOUTHEAST IDAHO


CITY           SKY/WX    TMP DP  RH WIND       PRES   REMARKS
IDAHO FALLS    MOSUNNY   81  37  20 SW8       29.85S
POCATELLO      MOSUNNY   87  35  15 NW3       29.83S
REXBURG        SUNNY     82  35  18 W7        29.85F
$$

IDZ006-010-011-018-031-032-030200-
CENTRAL IDAHO MOUNTAINS


CITY           SKY/WX    TMP DP  RH WIND       PRES   REMARKS
MCCALL         PTSUNNY   68  34  28 SW8       29.86F
HAILEY         MOSUNNY   77  32  19 S7        29.89F
STANLEY          N/A     70  27  20 S7        29.94F
SALMON         MOSUNNY   77  30  18 W17G24    29.73R
CHALLIS        MOSUNNY   79  26  14 SW7       29.81F
$$

IDZ002-004-006-007-026-030200-
NORTHERN IDAHO


CITY           SKY/WX    TMP DP  RH WIND       PRES   REMARKS
LEWISTON       CLOUDY    67  43  41 NW6       29.86F
LOWELL           N/A     70  46  42 CALM      29.86R
COEUR D`ALENE  PTSUNNY   64  45  48 S10G16    29.84S
MULLAN PASS    CLOUDY    42  36  79 MISG      29.96S
$$


USA.gov is the U.S. government's official web portal to all federal, state and local government web resources and services.